Regional Weather Roundup
Issued by NWS

Home | Current Version | Previous Version | Text Only | Print | Product List | Glossary Off
Versions: 1 2 3 4 5 6 7 8 9 10 11 12 13 14 15 16 17 18 19 20 21 22 23 24 25 26 27 28 29 30 31 32 33 34 35 36 37 38 39 40 41 42 43 44 45 46 47 48 49 50

000
ASUS43 KIND 032059
RWRIN

WEATHER ROUNDUP FOR INDIANA
NATIONAL WEATHER SERVICE INDIANAPOLIS IN
400 PM EST SAT DEC 03 2016

NOTE: "FAIR" INDICATES FEW OR NO CLOUDS BELOW 12,000 FEET WITH NO
SIGNIFICANT WEATHER AND/OR OBSTRUCTIONS TO VISIBILITY.

* - STATION DOES NOT REPORT WEATHER SUCH AS PRECIPITATION OR FOG.

+ - STATION NOT QUALITY CONTROLLED BY THE NATIONAL WEATHER SERVICE.
    USE DATA WITH CAUTION...ESPECIALLY DEWPOINT AND RELATIVE
    HUMIDITY OBSERVATIONS.

INZ001>003-010>013-019-020-032200-
NORTHWEST INDIANA

CITY           SKY/WX    TMP DP  RH WIND       PRES   REMARKS
GARY /AIRPORT/ CLOUDY    36  25  64 W8        30.34F
LA PORTE +     CLOUDY    37  30  75 SW6       30.32F
MONTICELLO +   CLOUDY    35  23  62 W5        30.33F WCI  31
RENSSELAER +   CLOUDY    34  28  80 NW3       30.34S

$$

LMZ046-743>745-032200-
SOUTHERN LAKE MICHIGAN

STATION/POSITION TIME  TEMP    WIND        PRES    WAVE
                       AIR SEA DIR/SP/G            HT
                 (UTC) (F)     (DEG/KT/KT) (MB)    (FT)
BURNS HARBOR     2040   36     220/  7/ 10 1027.4F
MICHIGAN CITY    2030   35     220/ 11/ 14   N/A

$$

INZ004-005-014>016-021>024-032200-
NORTH CENTRAL INDIANA

CITY           SKY/WX    TMP DP  RH WIND       PRES   REMARKS
ELKHART        CLOUDY    36  25  64 SW6       30.31S
GOSHEN         CLOUDY    36  24  62 SW7       30.32R
SOUTH BEND     CLOUDY    35  24  64 SW7       30.32R WCI  29
WARSAW +       CLOUDY    36  23  60 W5        30.32S

$$

INZ006>009-017-018-025>027-032200-
NORTHEAST INDIANA

CITY           SKY/WX    TMP DP  RH WIND       PRES   REMARKS
ANGOLA *+      CLOUDY    36  27  69 W6        30.30R
FORT WAYNE     CLOUDY    36  25  64 W5        30.33S
KENDALLVILLE + CLOUDY    35  27  70 W7        30.31R WCI  30

$$

INZ028-029-035-036-043>045-051>053-032200-
WEST CENTRAL INDIANA

CITY           SKY/WX    TMP DP  RH WIND       PRES   REMARKS
CRAWFORDSVL +  CLOUDY    35  29  79 NW9       30.32F WCI  27
GREENCASTLE +  CLOUDY    37  30  75 N6        30.31F
LAFAYETTE      CLOUDY    35  28  75 NW8       30.34S WCI  29
TERRE HAUTE    CLOUDY    39  28  64 N8        30.33S

$$

INZ030>032-037>040-046>048-054>057-064-065-032200-
CENTRAL INDIANA

CITY           SKY/WX    TMP DP  RH WIND       PRES   REMARKS
ANDERSON       CLOUDY    37  28  70 W6        30.32F
COLUMBUS       MOSUNNY   39  30  70 N5        30.32F
FRANKFORT +    CLOUDY    38  30  73 W8        30.34F
GREENWOOD *+   CLOUDY    39  29  68 NW5       30.31F
INDIANAPOLIS   CLOUDY    39  28  64 NW8       30.31F
-EAGLE CREEK   CLOUDY    39  28  64 NW9       30.31F
KOKOMO +       CLOUDY    36  28  73 W8        30.33S
SHELBYVILLE    PTSUNNY   39  27  62 W7        30.31F
ZIONSVILLE +   CLOUDY    35  28  76 NW7       30.32F WCI  29

$$

INZ033-034-041-042-049-050-058-059-032200-
EAST CENTRAL INDIANA

CITY           SKY/WX    TMP DP  RH WIND       PRES   REMARKS
MUNCIE         CLOUDY    39  28  64 W6        30.31S

$$

INZ060-061-067>069-081>083-085>088-032200-
SOUTHWEST INDIANA

CITY           SKY/WX    TMP DP  RH WIND       PRES   REMARKS
EVANSVILLE     CLOUDY    45  29  53 NE6       30.32S
HUNTINGBURG *+ CLOUDY    43  28  55 MISG      30.32S

$$

INZ062-063-066-070>080-084-089>092-032200-
SOUTH CENTRAL AND SOUTHEAST INDIANA

CITY           SKY/WX    TMP DP  RH WIND       PRES   REMARKS
BLOOMINGTON    CLOUDY    41  27  57 CALM      30.30F
MADISON *+     MOSUNNY   41  28  60 NW3       30.33S
SEYMOUR +      CLOUDY    43  28  56 CALM      30.32F

$$





USA.gov is the U.S. government's official web portal to all federal, state and local government web resources and services.